[[{"header":{"parameterUnit":"m.s-1","parameterCategory":1,"la1":30.2991,"la2":30.254,"lo1":-89.0895,"lo2":-89.0444,"dy":0.0017,"dx":0.0017,"nx":28,"ny":28,"refTime":"2023-09-09T21:00:00:Z","depth":0,"parameterNumber":2,"parameterNumberName":"U-component_of_WINDS"},"data":[0,0,0,0,0,0,0,0,0,0,0,0,0,0,0,0,0,0,0,0,0,0,0,0,0,0,0,0,0,0,0,0,0,0,0,0,0,0,0,0,0,0,0,0,0,0,0,0,0,0,0,0,0,0,0,0,0,0,-0.6127,-0.6127,0,-0.6135,-0.6135,-0.6135,-0.6155,-0.6156,-0.6156,-0.6156,-0.6163,-0.6163,-0.6163,0,0,0,0,0,0,0,0,0,0,0,0,0,-0.6128,-0.6128,-0.6127,-0.6127,-0.6127,-0.6135,-0.6135,-0.6135,-0.6155,-0.6156,-0.6156,-0.6157,-0.6163,-0.6163,-0.6163,0,0,0,0,0,0,0,0,0,0,0,0,0,-0.6131,-0.6128,-0.6127,-0.6138,-0.6139,-0.6135,-0.6135,-0.6136,-0.6155,-0.6156,-0.6156,-0.6157,-0.6164,-0.6163,-0.6163,-0.6148,0,0,-0.6162,-0.6162,0,0,0,0,0,0,0,0,-0.6131,-0.6131,-0.6137,-0.6137,-0.6139,-0.6145,-0.6138,-0.614,-0.6155,-0.6149,-0.6156,-0.6157,-0.6157,-0.6157,-0.6157,-0.6149,-0.6149,-0.6162,-0.6162,-0.6162,-0.6162,0,0,0,0,0,0,0,-0.6131,-0.6131,-0.613,-0.6137,-0.6138,-0.6142,-0.6144,-0.6139,-0.6149,-0.615,-0.6151,-0.6152,-0.6157,-0.6157,-0.6157,-0.6149,-0.6162,-0.6162,-0.6162,-0.6161,-0.613,-0.6129,0,0,0,0,0,0,-0.6129,-0.613,-0.613,-0.6131,-0.6136,-0.6142,-0.6143,-0.6142,-0.6149,-0.6151,-0.6151,-0.6153,-0.6157,-0.6158,-0.6158,-0.6142,-0.6162,-0.6161,-0.6161,-0.6131,-0.613,-0.6129,0,0,0,0,0,0,-0.6129,-0.6129,-0.613,-0.6131,-0.6131,-0.6141,-0.614,-0.6142,-0.6142,-0.6151,-0.6152,-0.6149,-0.6158,-0.6158,-0.6151,-0.6142,-0.6161,-0.6161,-0.6131,-0.613,-0.6129,-0.6109,0,0,0,0,0,0,-0.6129,-0.6129,-0.6123,-0.6131,-0.6131,-0.6123,-0.614,-0.6142,-0.6142,-0.6144,-0.6149,-0.6151,-0.6158,-0.6151,-0.615,-0.6142,-0.6161,-0.6132,-0.6131,-0.613,-0.6111,-0.6107,-0.6105,0,0,0,0,0,-0.6129,-0.6117,-0.6123,-0.6123,-0.6125,-0.6123,-0.6123,-0.6132,-0.6141,-0.6136,-0.6141,-0.6151,-0.6143,-0.615,-0.615,-0.6141,-0.6133,-0.6131,-0.613,-0.6112,-0.6108,-0.6105,0,0,0,0,0,0,-0.6108,-0.6118,-0.6125,-0.6115,-0.6118,-0.6126,-0.612,-0.6128,-0.6128,-0.613,-0.6141,-0.6142,-0.6133,-0.6136,-0.6144,-0.6128,-0.6139,-0.6138,-0.6126,-0.6123,-0.612,-0.6119,-0.616,0,0,0,0,0,-0.6102,-0.61,-0.6109,-0.6099,-0.61,-0.611,-0.6109,-0.6116,-0.6119,-0.612,-0.6125,-0.6127,-0.6126,-0.6124,-0.6123,-0.6111,-0.6113,-0.6105,-0.6102,-0.6099,-0.6098,-0.6092,-0.6089,-0.6124,-0.6124,-0.6124,0,0,-0.6091,-0.6096,-0.6093,-0.6095,-0.6098,-0.6095,-0.611,-0.6106,-0.6104,-0.6119,-0.6113,-0.6117,-0.612,-0.611,-0.6106,-0.6113,-0.6089,-0.6098,-0.6096,-0.6095,-0.609,-0.6087,-0.6084,-0.6123,-0.6123,-0.6124,0,0,-0.6068,-0.6071,-0.6064,-0.6067,-0.6071,-0.6078,-0.6076,-0.6082,-0.6086,-0.6079,-0.6091,-0.6088,-0.6085,-0.6087,-0.6087,-0.6065,-0.6074,-0.6064,-0.605,-0.6044,-0.6041,-0.6039,-0.6031,-0.6028,-0.6063,-0.6063,-0.6063,0,-0.6052,-0.6049,-0.6059,-0.6055,-0.6055,-0.6069,-0.6062,-0.6064,-0.6067,-0.6067,-0.6074,-0.607,-0.6074,-0.6065,-0.606,-0.6059,-0.6058,-0.6064,-0.6041,-0.6039,-0.6036,-0.6029,-0.6026,-0.6062,-0.6062,-0.6062,-0.6062,0,-0.603,-0.6027,-0.602,-0.6024,-0.6024,-0.6018,-0.6027,-0.6026,-0.6033,-0.6038,-0.6032,-0.6036,-0.6036,-0.6034,-0.6041,-0.6027,-0.603,-0.6039,-0.6051,-0.6032,-0.6025,-0.6023,-0.606,-0.606,-0.6061,-0.6061,0,0,-0.5994,-0.6004,-0.6001,-0.6003,-0.6009,-0.6007,-0.6002,-0.6002,-0.6001,-0.6002,-0.5998,-0.5995,-0.6003,-0.6004,-0.6011,-0.6005,-0.5988,-0.6015,-0.6015,-0.601,-0.5973,-0.5967,-0.5963,-0.5994,-0.5993,-0.5993,-0.5973,0,-0.5973,-0.5965,-0.5974,-0.5964,-0.5961,-0.5975,-0.597,-0.5973,-0.5978,-0.5976,-0.5982,-0.5979,-0.599,-0.599,-0.5986,-0.5991,-0.5981,-0.5993,-0.599,-0.599,-0.5989,-0.596,-0.5954,-0.5934,-0.597,-0.597,-0.5969,0,-0.5947,-0.5948,-0.5938,-0.5945,-0.5944,-0.594,-0.5941,-0.5939,-0.5943,-0.5947,-0.5948,-0.5956,-0.5951,-0.5963,-0.5956,-0.5964,-0.5963,-0.5966,-0.5965,-0.5966,-0.5979,-0.596,-0.5928,-0.5925,-0.5966,-0.5966,-0.5966,0,-0.5923,-0.5922,-0.5916,-0.5917,-0.5924,-0.5921,-0.5924,-0.5928,-0.5928,-0.5929,-0.5929,-0.5929,-0.5929,-0.5929,-0.5937,-0.5945,-0.593,-0.5942,-0.5933,-0.5933,-0.5929,-0.5929,-0.5897,-0.5928,-0.5928,-0.5928,-0.5928,0,-0.5898,-0.5892,-0.5905,-0.5901,-0.5894,-0.5904,-0.5897,-0.5901,-0.5905,-0.5902,-0.5913,-0.591,-0.5921,-0.5919,-0.5925,-0.5919,-0.5919,-0.5922,-0.5924,-0.5921,-0.5921,-0.5921,-0.5923,-0.5927,-0.5928,-0.5928,-0.5928,0,-0.587,-0.5879,-0.5873,-0.5881,-0.5883,-0.5877,-0.5883,-0.588,-0.5886,-0.5882,-0.5882,-0.589,-0.5889,-0.5897,-0.5896,-0.5901,-0.5891,-0.5895,-0.589,-0.5892,-0.5882,-0.5883,-0.585,-0.5846,-0.5878,-0.5878,-0.5878,0,-0.5854,-0.585,-0.5857,-0.5856,-0.5859,-0.5857,-0.5857,-0.5867,-0.5867,-0.587,-0.5866,-0.5866,-0.5866,-0.5862,-0.5869,-0.5868,-0.5873,-0.5861,-0.5873,-0.587,-0.5873,-0.5873,-0.5873,-0.5858,-0.5858,-0.5858,-0.5857,0,-0.5826,-0.583,-0.583,-0.5831,-0.5831,-0.5832,-0.5834,-0.5833,-0.5844,-0.5842,-0.5841,-0.5841,-0.5841,-0.584,-0.5841,-0.5844,-0.5852,-0.5854,-0.5852,-0.5849,-0.5847,-0.5848,-0.5884,-0.5854,-0.5855,-0.5855,-0.5855,-0.5855,-0.5803,-0.58,-0.5805,-0.5804,-0.5807,-0.5808,-0.5806,-0.5811,-0.5811,-0.5812,-0.5817,-0.5815,-0.5819,-0.5821,-0.5823,-0.5821,-0.5827,-0.5823,-0.5823,-0.5822,-0.5821,-0.5847,-0.5821,-0.5821,-0.5821,-0.5821,-0.5821,0,-0.5776,-0.5779,-0.5779,-0.5781,-0.5781,-0.5789,-0.5792,-0.5791,-0.5789,-0.5792,-0.5792,-0.579,-0.5789,-0.5795,-0.5795,-0.5793,-0.5797,-0.5792,-0.5793,-0.5794,-0.5815,-0.5817,-0.5789,-0.5789,-0.5789,-0.5789,-0.5789,-0.5789,-0.5761,-0.5756,-0.5761,-0.5757,-0.576,-0.5759,-0.5759,-0.5761,-0.5763,-0.5761,-0.5761,-0.5765,-0.5769,-0.577,-0.5769,-0.5771,-0.5771,-0.5765,-0.5768,-0.5789,-0.5792,-0.5795,-0.5797,-0.5765,-0.5765,-0.5747,-0.5747,-0.5747]},{"header":{"parameterUnit":"m.s-1","parameterCategory":1,"la1":30.2991,"la2":30.254,"lo1":-89.0895,"lo2":-89.0444,"dy":0.0017,"dx":0.0017,"nx":28,"ny":28,"refTime":"2023-09-09T21:00:00:Z","depth":0,"parameterNumber":3,"parameterNumberName":"V-component_of_WINDS"},"data":[0,0,0,0,0,0,0,0,0,0,0,0,0,0,0,0,0,0,0,0,0,0,0,0,0,0,0,0,0,0,0,0,0,0,0,0,0,0,0,0,0,0,0,0,0,0,0,0,0,0,0,0,0,0,0,0,0,0,0.0663,0.0662,0,0.0624,0.0624,0.0623,0.0553,0.0552,0.0551,0.0549,0.0511,0.0512,0.0512,0,0,0,0,0,0,0,0,0,0,0,0,0,0.0677,0.0678,0.0663,0.0662,0.0662,0.0624,0.0624,0.0623,0.0554,0.0552,0.055,0.0549,0.0511,0.0512,0.0512,0,0,0,0,0,0,0,0,0,0,0,0,0,0.0658,0.0678,0.0663,0.0622,0.0618,0.0625,0.0624,0.0623,0.0554,0.0552,0.055,0.0548,0.0511,0.0512,0.0512,0.0555,0,0,0.0513,0.0513,0,0,0,0,0,0,0,0,0.066,0.0658,0.0629,0.0625,0.0621,0.0592,0.0615,0.06,0.0554,0.0579,0.0549,0.0547,0.054,0.0538,0.0535,0.0553,0.0551,0.0513,0.0513,0.0514,0.0514,0,0,0,0,0,0,0,0.0661,0.0659,0.0648,0.0629,0.0624,0.0607,0.0602,0.0612,0.0571,0.0576,0.0571,0.0567,0.0537,0.0535,0.0534,0.0551,0.0513,0.0513,0.0514,0.0514,0.0603,0.0605,0,0,0,0,0,0,0.0668,0.0661,0.0649,0.0646,0.0636,0.0608,0.0603,0.0603,0.0571,0.0564,0.0569,0.0564,0.0535,0.0533,0.0532,0.058,0.0514,0.0514,0.0514,0.0601,0.0603,0.0605,0,0,0,0,0,0,0.0669,0.0668,0.065,0.0652,0.0649,0.061,0.0611,0.0603,0.0601,0.0565,0.0558,0.0574,0.0534,0.0531,0.055,0.0578,0.0514,0.0514,0.0598,0.0601,0.0604,0.0677,0,0,0,0,0,0,0.0669,0.0668,0.0684,0.0653,0.0649,0.0669,0.0613,0.0604,0.0601,0.0595,0.0568,0.0562,0.0532,0.055,0.055,0.0577,0.0515,0.0595,0.06,0.0603,0.0672,0.0683,0.0692,0,0,0,0,0,0.067,0.0706,0.0685,0.0684,0.0667,0.067,0.0668,0.0632,0.0604,0.062,0.0597,0.0562,0.0575,0.0552,0.0552,0.058,0.0593,0.0598,0.0603,0.0668,0.0681,0.0691,0,0,0,0,0,0,0.0741,0.0701,0.0677,0.0704,0.0691,0.0658,0.0677,0.0647,0.0642,0.0636,0.0592,0.0587,0.0611,0.0597,0.0572,0.062,0.0579,0.0584,0.0628,0.064,0.0649,0.0653,0.0515,0,0,0,0,0,0.076,0.0765,0.073,0.0757,0.0752,0.0716,0.0716,0.069,0.0674,0.0669,0.0647,0.0634,0.0635,0.0637,0.0635,0.067,0.0663,0.0689,0.0699,0.0707,0.0712,0.073,0.0741,0.0621,0.0621,0.0621,0,0,0.0799,0.0778,0.0784,0.0771,0.0758,0.0765,0.0712,0.0721,0.0726,0.067,0.0686,0.067,0.0653,0.0679,0.069,0.0669,0.0744,0.0713,0.072,0.072,0.0736,0.0747,0.0757,0.0624,0.0624,0.0623,0,0,0.0874,0.0858,0.0879,0.0867,0.0848,0.0823,0.0829,0.08,0.0788,0.0803,0.0761,0.0767,0.0769,0.0758,0.0753,0.0825,0.0793,0.0826,0.0877,0.0894,0.0904,0.0912,0.0938,0.0948,0.0831,0.0831,0.0831,0,0.0925,0.0933,0.0894,0.0906,0.0902,0.0852,0.0873,0.0863,0.0845,0.0844,0.082,0.0822,0.0807,0.083,0.0848,0.0845,0.0851,0.0829,0.0905,0.0913,0.092,0.0945,0.0955,0.0835,0.0835,0.0834,0.0834,0,0.0997,0.1004,0.1023,0.1007,0.1005,0.1022,0.0986,0.0989,0.0963,0.0941,0.0958,0.0938,0.0932,0.0936,0.091,0.0956,0.0943,0.0913,0.0871,0.0937,0.0959,0.0968,0.0841,0.084,0.0838,0.0837,0,0,0.1116,0.1077,0.1085,0.1077,0.1052,0.1057,0.1072,0.1065,0.1069,0.1058,0.107,0.1074,0.1045,0.104,0.1013,0.1029,0.1088,0.0997,0.0996,0.1015,0.1138,0.1161,0.1172,0.1066,0.1068,0.1069,0.1139,0,0.1186,0.1208,0.1174,0.1205,0.1211,0.1163,0.1176,0.1163,0.1143,0.1146,0.1124,0.1127,0.109,0.1086,0.11,0.1078,0.1112,0.1072,0.1078,0.1078,0.1084,0.1184,0.1208,0.1275,0.1148,0.1149,0.115,0,0.127,0.1263,0.1294,0.1268,0.1269,0.1281,0.1273,0.1276,0.126,0.1245,0.1239,0.1208,0.1221,0.118,0.1198,0.1172,0.1173,0.1162,0.1164,0.1163,0.1119,0.1186,0.1295,0.1306,0.1163,0.1162,0.1161,0,0.1354,0.1352,0.1371,0.1365,0.1335,0.1345,0.1333,0.1314,0.1313,0.1307,0.1305,0.1301,0.1298,0.1295,0.1263,0.1236,0.1286,0.1242,0.1274,0.1275,0.1287,0.1287,0.1398,0.1287,0.1287,0.1287,0.1286,0,0.1435,0.1457,0.1408,0.142,0.1443,0.1403,0.1427,0.141,0.1394,0.1402,0.1361,0.1369,0.1326,0.1331,0.1306,0.1325,0.1324,0.1313,0.1306,0.1317,0.1318,0.1317,0.1311,0.1289,0.1289,0.1288,0.1288,0,0.1533,0.1501,0.1518,0.1488,0.1481,0.1499,0.1474,0.1484,0.1461,0.1472,0.1472,0.1438,0.1441,0.1409,0.1405,0.1389,0.142,0.1404,0.1425,0.1421,0.1455,0.1452,0.1569,0.1583,0.1463,0.1464,0.1465,0,0.1587,0.1602,0.1574,0.1576,0.1566,0.157,0.1568,0.153,0.153,0.1514,0.1526,0.1525,0.1523,0.1529,0.1505,0.1502,0.1487,0.1528,0.1486,0.1497,0.1488,0.1488,0.1489,0.1537,0.1538,0.154,0.1541,0,0.1687,0.1671,0.167,0.1664,0.1663,0.1657,0.1648,0.1652,0.1611,0.1613,0.1615,0.1613,0.161,0.161,0.1603,0.1591,0.156,0.1554,0.1561,0.1573,0.1584,0.1579,0.145,0.1551,0.155,0.155,0.1549,0.1549,0.1765,0.1776,0.1758,0.1759,0.1748,0.174,0.1748,0.1727,0.1728,0.1722,0.17,0.1706,0.1691,0.1677,0.1668,0.1673,0.1653,0.1664,0.1667,0.167,0.1676,0.1583,0.1672,0.1671,0.1671,0.1671,0.167,0,0.1863,0.1849,0.185,0.1838,0.1839,0.1809,0.1797,0.18,0.1806,0.1794,0.1792,0.1796,0.1796,0.1771,0.1768,0.1777,0.1762,0.1777,0.1777,0.1774,0.1694,0.1688,0.1789,0.1789,0.1789,0.1789,0.1789,0.1789,0.1914,0.1932,0.1914,0.1926,0.1912,0.1918,0.1914,0.1907,0.1897,0.1903,0.1902,0.1886,0.1869,0.1865,0.1864,0.1856,0.1858,0.1878,0.1866,0.1791,0.178,0.1769,0.1763,0.1878,0.1878,0.1946,0.1946,0.1947]}]]